Flag for Saudi Arabia Weather past 2 weeks in Makkah, Saudi Arabia

Now
95 °F

Passing clouds.


Feels Like: 105 °F
Forecast: 71 / 100 °F
Wind: 3 mph from West

Location: Mecca Airport

Current Time: Oct 2, 2014 at 7:18:26 PM

Latest Report: Oct 2, 2014 at 6:00 PM


Visibility: N/A

Pressure: 29.80 "Hg

Humidity: 50%

Dew point: 73 °F

Location of MakkahLocation

Historic Weather in Makkah — Graph

°F

Makkah temperature yesterday

Maximum temperature yesterday: 104 °F (at 3:00 PM)
Minimum temperature yesterday: 82 °F (at 7:00 AM)
Average temperature yesterday: 92 °F

Past Weeks' High & Low Weather Summary

 TemperatureHumidityPressure
High111 °F (Sep 18, 3:00 PM)74% (Oct 1, 7:00 AM)30.01 "Hg (Oct 1, 7:00 AM)
Low82 °F (Sep 26, 7:00 AM)15% (Sep 29, 3:00 PM)29.65 "Hg (Sep 23, 1:00 PM)
Average95 °F44%29.75 "Hg
* Reported Sep 17 6:00 PM — Oct 2 6:00 PM, Makkah, Weather by CustomWeather, © 2014

Note: Actual official high and low records may vary slightly from our data, if they occured in-between our weather recording intervals... More about our weather records

Advertising

Makkah weather history for previous 24 hours

 ConditionsComfort  
Time TempWeatherWind HumidityBarometerVisibility
6:00 PM
Oct 2
95 °FPassing clouds.3 mph50%29.80 "HgN/A
5:00 PM99 °FPassing clouds.3 mph47%29.77 "HgN/A
4:00 PM102 °FScattered clouds.2 mph37%29.77 "HgN/A
3:00 PM102 °FSunny.2 mph37%29.77 "Hg10 mi
2:00 PM100 °FSunny.3 mph37%29.77 "Hg10 mi
1:00 PM99 °FSunny.3 mph42%29.80 "Hg10 mi
12:00 PM97 °FSunny.3 mph44%29.83 "Hg10 mi
11:00 AM95 °FSunny.2 mph44%29.86 "Hg10 mi
10:00 AM95 °FSunny.17 mph30%30.01 "Hg10 mi
9:00 AM88 °FSunny.15 mph33%30.01 "Hg10 mi
8:00 AM84 °FSunny.No wind70%29.83 "Hg10 mi
7:00 AM82 °FSunny.No wind70%29.83 "Hg10 mi
6:00 AM82 °FClear.No wind70%29.80 "Hg10 mi
4:00 AM82 °FClear.No wind70%29.77 "Hg10 mi
3:00 AM84 °FClear.No wind66%29.77 "Hg10 mi
2:00 AM84 °FClear.No wind66%29.77 "Hg10 mi
1:00 AM86 °FClear.No wind62%29.77 "Hg10 mi
12:00 AM88 °FClear.No wind62%29.77 "Hg10 mi
11:00 PM
Oct 1
88 °FClear.No wind59%29.77 "Hg10 mi
10:00 PM90 °FClear.2 mph55%29.77 "Hg10 mi
9:00 PM91 °FClear.2 mph52%29.77 "Hg10 mi
8:00 PM91 °FClear.2 mph52%29.77 "Hg10 mi
7:00 PM93 °FClear.2 mph49%29.74 "Hg10 mi
Weather by CustomWeather, © 2014

See weather overviewHow to use our weather pages